Location: Newark
(44.6028°N, 124.0883°W)
Time: 00:29:24
(UTC+00:00)

N. Korean satellite - Pass Details

Date: 26 October 2020
Orbit: 452 x 504 km, 97.2° (Epoch: 24 November)

Event Time Altitude Azimuth Distance (km) Brightness Sun altitude
Rises 13:41:19 0° 15° (NNE) 2,482 10.3 -12.2°
Reaches altitude 10° 13:43:23 10° 18° (NNE) 1,600 9.3 -11.9°
Maximum altitude 13:46:46 63° 100° (E) 509 6.9 -11.3°
Drops below altitude 10° 13:50:08 10° 183° (S) 1,583 9.2 -10.7°
Sets 13:52:10 0° 187° (S) 2,453 10.2 -10.3°
